User: anonymous   Login
Location: Mat�lon
(46.2791°N, 7.1028°E)
Time: 11:08:51
(UTC+00:00)
Language:

Cosmos 1072 Rocket - Orbit

View from above orbital plane
View from above orbital plane
View from above satellite
View from above satellite

Ground track
Ground track

The orbit data is extracted from the following two-line orbital elements,

1 11239U 79003B   20337.83945920  .00000053  00000-0  38368-4 0  9990
2 11239  82.9403 229.8326 0042013  99.7657 304.8973 13.75843020101503
Epoch (UTC): 02 December 2020 20:08:49
Eccentricity: 0.0042013
inclination: 82.9403°
perigee height: 948 km
apogee height: 1009 km
right ascension of ascending node: 229.8326°
argument of perigee: 99.7657°
revolutions per day: 13.75843020
mean anomaly at epoch: 304.8973°
orbit number at epoch: 10150

The dashed part of the orbit path shows where the satellite is in the earth's shadow,  

DLR